Johnstown, PA

6:36 PM EDT on April 24, 2017 (GMT -0400)
Johnstown-Cambria County

Weather History for KJST - December, 2011

Change the Weather History Date:

Thursday, December 8, 2011

  Actual Average Record
Temperature  
Mean Temperature 24 °F 30 °F  
Max Temperature 26 °F 37 °F 76 °F (1951)
Min Temperature 23 °F 24 °F 7 °F (2005)
Degree Days  
Heating Degree Days 40 35  
Month to date heating degree days 267  
Since 1 July heating degree days 1724  
Cooling Degree Days 0 0  
Month to date cooling degree days 0  
Year to date cooling degree days 382  
Moisture  
Dew Point 21 °F    
Average Humidity 88    
Maximum Humidity 96    
Minimum Humidity 81    
Precipitation  
Precipitation 0.00 in 0.09 in 1.25 in (1978)
Month to date precipitation 0.73  
Year to date precipitation 31.78  
Sea Level Pressure  
Sea Level Pressure 30.13 in    
Wind  
Wind Speed 16 mph (WSW)    
Max Wind Speed 24 mph    
Max Gust Speed 36 mph    
Visibility 9 miles    
Events Snow    
T = Trace of Precipitation, MM = Missing Value Source: NWS Daily Summary

Daily Weather History Graph

Daily Weather History Graph

Search for Another Location

Airport or City:

Trip Planner

Search our weather history database for the weather conditions in past years. The results will help you decide how hot, cold, wet, or windy it might be!

Date:

Astronomy

Dec. 08, 2011 Rise Set
Actual Time 7:25 AM EST 4:48 PM EST
Civil Twilight 6:54 AM EST 5:19 PM EST
Nautical Twilight 6:20 AM EST 5:53 PM EST
Astronomical Twilight 5:47 AM EST 6:26 PM EST
Moon 3:27 PM EST (12/8) 5:35 AM EST (12/8)
Length of Visible Light 10h 24m
Length of Day
9h 23m
Waxing Gibbous, 97% of the Moon is Illuminated
Dec 8
Waxing Gibbous
Dec 10
Full
Dec 17
Last Quarter
Dec 24
New
Jan 1
First Quarter

Hourly Weather History & Observations

Time (EST) Temp. Windchill Dew Point Humidity Pressure Visibility Wind Dir Wind Speed Gust Speed Precip Events Conditions
12:12 AM 24.8 °F 11.5 °F 23.0 °F 93% 29.86 in 4.0 mi West 17.3 mph 31.1 mph 0.00 in Snow Light Snow
12:35 AM 24.8 °F 9.3 °F 21.2 °F 86% 29.87 in 8.0 mi West 24.2 mph 32.2 mph 0.00 in   Overcast
12:54 AM 24.1 °F 10.1 °F 21.0 °F 88% 29.96 in 10.0 mi West 18.4 mph 26.5 mph 0.00 in   Overcast
1:08 AM 24.8 °F 12.4 °F 21.2 °F 86% 29.89 in 10.0 mi West 15.0 mph 23.0 mph N/A   Overcast
1:35 AM 24.8 °F 11.1 °F 21.2 °F 86% 29.89 in 10.0 mi West 18.4 mph 23.0 mph N/A   Overcast
1:54 AM 24.1 °F 10.6 °F 21.9 °F 91% 29.97 in 10.0 mi West 17.3 mph 24.2 mph N/A   Overcast
2:40 AM 24.8 °F 10.7 °F 21.2 °F 86% 29.90 in 9.0 mi West 19.6 mph 25.3 mph N/A   Overcast
2:54 AM 24.1 °F 8.7 °F 21.9 °F 91% 29.99 in 7.0 mi West 23.0 mph 35.7 mph N/A   Overcast
3:54 AM 23.0 °F 7.6 °F 21.0 °F 92% 30.02 in 8.0 mi West 21.9 mph 27.6 mph 0.00 in   Overcast
4:54 AM 23.0 °F 8.3 °F 21.0 °F 92% 30.05 in 10.0 mi West 19.6 mph - N/A   Mostly Cloudy
5:54 AM 23.0 °F 7.2 °F 19.9 °F 88% 30.08 in 5.0 mi West 23.0 mph 33.4 mph 0.00 in   Mostly Cloudy
6:51 AM 23.0 °F 9.6 °F 21.2 °F 93% 30.03 in 9.0 mi West 16.1 mph 31.1 mph 0.00 in   Overcast
6:54 AM 23.0 °F 9.2 °F 21.0 °F 92% 30.12 in 9.0 mi West 17.3 mph 31.1 mph 0.00 in   Mostly Cloudy
7:54 AM 23.0 °F 8.7 °F 21.0 °F 92% 30.17 in 7.0 mi West 18.4 mph - N/A   Overcast
8:39 AM 24.8 °F 12.4 °F 21.2 °F 86% 30.10 in 8.0 mi West 15.0 mph 23.0 mph N/A   Overcast
8:52 AM 24.8 °F 14.6 °F 21.2 °F 86% 30.12 in 7.0 mi West 10.4 mph 21.9 mph N/A   Overcast
8:54 AM 24.1 °F 13.1 °F 21.9 °F 91% 30.22 in 7.0 mi West 11.5 mph 21.9 mph N/A   Overcast
9:54 AM 24.8 °F 14.6 °F 21.2 °F 86% 30.11 in 10.0 mi West 10.4 mph - N/A   Overcast
10:54 AM 25.0 °F 14.2 °F 21.9 °F 88% 30.22 in 8.0 mi West 11.5 mph - N/A   Overcast
11:54 AM 25.0 °F 14.8 °F 21.9 °F 88% 30.25 in 10.0 mi West 10.4 mph - N/A   Overcast
12:54 PM 25.0 °F 13.1 °F 21.0 °F 85% 30.25 in 10.0 mi WSW 13.8 mph - N/A   Overcast
1:04 PM 24.8 °F 14.6 °F 21.2 °F 86% 30.16 in 10.0 mi West 10.4 mph - N/A   Overcast
1:54 PM 25.0 °F 14.8 °F 21.0 °F 85% 30.26 in 10.0 mi WSW 10.4 mph - N/A   Overcast
2:14 PM 24.8 °F 14.0 °F 21.2 °F 86% 30.17 in 10.0 mi West 11.5 mph - N/A   Overcast
2:54 PM 25.0 °F 14.8 °F 21.0 °F 85% 30.25 in 10.0 mi WSW 10.4 mph - N/A   Mostly Cloudy
3:04 PM 24.8 °F 16.9 °F 21.2 °F 86% 30.15 in 10.0 mi WSW 6.9 mph - N/A   Scattered Clouds
3:54 PM 25.0 °F 16.3 °F 19.9 °F 81% 30.26 in 10.0 mi WSW 8.1 mph - N/A   Clear
4:54 PM 24.1 °F 13.7 °F 21.0 °F 88% 30.28 in 10.0 mi WSW 10.4 mph - N/A   Partly Cloudy
5:54 PM 23.0 °F 15.8 °F 19.9 °F 88% 30.30 in 10.0 mi SSW 5.8 mph - N/A   Clear
6:54 PM 23.0 °F 13.1 °F 21.2 °F 93% 30.20 in 10.0 mi SSW 9.2 mph - N/A   Clear
7:54 PM 23.0 °F 13.9 °F 21.9 °F 96% 30.31 in 9.0 mi SSW 8.1 mph - N/A   Clear
8:54 PM 24.1 °F 13.7 °F 21.9 °F 91% 30.31 in 10.0 mi SW 10.4 mph - N/A   Clear
9:54 PM 25.0 °F 15.5 °F 21.9 °F 88% 30.30 in 10.0 mi SSW 9.2 mph - N/A   Clear
10:54 PM 26.1 °F 17.6 °F 21.9 °F 84% 30.29 in 10.0 mi SSW 8.1 mph - N/A   Overcast
11:54 PM 26.1 °F 17.6 °F 21.9 °F 84% 30.28 in 10.0 mi SW 8.1 mph - N/A   Overcast